Overview Statistics Trail Chart Weather Telemetry Raw packets
 

This is the latest recevied weather packets stored in our database for station/object KSGT. If no packets are shown the sender has not sent any weather packets the latest 10 day(s).

<< 40 41 42 43 44 45 46 >>
Time Temp. Humidity Pressure Rain* Wind** Luminosity Snow
1777404225 25.56° C 88% 1012.9 hPa - - - -
1777403622 25.56° C 88% 1012.9 hPa - - - -
1777403023 25.56° C 88% 1012.9 hPa - - - -
1777402424 26.67° C 78% 1013.5 hPa - - - -
1777401821 26.67° C 78% 1013.5 hPa - - - -
1777401222 26.67° C 78% 1013.5 hPa - - - -
1777400619 26.67° C 78% 1013.5 hPa - - - -
1777400020 26.67° C 78% 1013.5 hPa - - - -
1777399418 26.67° C 78% 1013.5 hPa - - - -
1777398819 25.56° C 83% 1014.2 hPa - - - -
1777398221 25.56° C 83% 1014.2 hPa - - - -
1777397623 25.56° C 83% 1014.2 hPa - - - -
1777397025 25.56° C 83% 1014.2 hPa - - - -
1777396425 25.56° C 83% 1014.2 hPa - - - -
1777395818 25.56° C 88% 1014.6 hPa - - - -
1777395221 23.89° C 94% 1014.9 hPa - - - -
1777394620 23.89° C 94% 1014.9 hPa - - - -
1777394018 23.89° C 94% 1014.9 hPa - - - -
1777393418 23.89° C 94% 1014.9 hPa - - - -
1777392819 25° C 88% 1015.2 hPa - - - -
1777392217 25° C 88% 1015.2 hPa - - - -
1777391623 23.89° C 94% 1015.2 hPa - - - -
1777391014 23.89° C 94% 1015.2 hPa - - - -
1777390419 23.89° C 94% 1015.2 hPa - - - -
1777389817 23.89° C 94% 1015.2 hPa - - - -

* Rain since midnight (hover to see other rain measurements)
** Current wind speed in m/s (hover to see current wind gust speed)